SCP
0 0 0 0 0 0 0 0 0 0 0 0 0 0 0 0 0 0 0 0 0 0 0 0 0 0 0 0 0 0 0 0 0 0 0 0 0 0 0 0 0 0 0
0 0 0 0 0 0 0 0 0 0 0 0 0 0 0 0 0 0 0 0 0 0 0 0 0 0 0 0 0 0 0 0 0 0 0 0 0 0 0 0 0 0 0
0 0 0 0 0 0 0 0 0 0 0 0 0 0 0 0 0 0 0 0 0 0 0 0 0 0 0 0 0 0 0 0 0 0 0 0 0 0 0 0 0 0 0
0 0 0 0 0 0 0 0 0 0 0 0 0 0 0 0 0 0 0 0 0 0 0 0 0 0 0 0 0 0 0 0 0 0 0 0 0 0 0 0 0 0 0
0 0 0 0 0 0 0 0 0 0 0 0 0 0 0 0 0 0 0 0 0 0 0 0 0 0 0 0 0 0 0 0 0 0 0 0 0 0 0 0 0 0 0
0 0 0 0 0 0 0 0 0 0 0 0 0 0 0 0 0 0 0 0 0 0 0 0 0 0 0 0 0 0 0 0 0 0 0 0 0 0 0 0 0 0 0
0 0 0 0 0 0 0 0 0 0 0 0 0 0 0 0 0 0 0 0 0 0 0 0 0 0 0 0 0 0 0 0 0 0 0 0 0 0 0 0 0 0 0
0 0 0 0 0 0 0 0 0 0 0 0 0 0 0 0 0 0 0 0 0 0 0 0 0 0 0 0 0 0 0 0 0 0 0 0 0 0 0 0 0 0 0
0 0 0 0 0 0 0 0 0 0 0 0 0 0 0 0 0 0 0 0 0 0 0 0 0 0 0 0 0 0 0 0 0 0 0 0 0 0 0 0 0 0 0
0 0 0 0 0 0 0 0 0 0 0 0 0 0 0 0 0 0 0 0 0 0 0 0 0 0 0 0 0 0 0 0 0 0 0 0 0 0 0 0 0 0 0
0 0 0 0 0 0 0 0 0 0 0 0 0 0 0 0 0 0 0 0 0 0 0 0 0 0 0 0 0 0 0 0 0 0 0 0 0 0 0 0 0 0 0
0 0 0 0 0 0 0 0 0 0 0 0 0 0 0 0 0 0 0 0 0 0 0 0 0 0 0 0 0 0 0 0 0 0 0 0 0 0 0 0 0 0 0
0 0 0 0 0 0 0 0 0 0 0 0 0 0 0 0 0 0 0 0 0 0 0 0 0 0 0 0 0 0 0 0 0 0 0 0 0 0 0 0 0 0 0
0 0 0 0 0 0 0 0 0 0 0 0 0 0 0 0 0 0 0 0 0 0 0 0 0 0 0 0 0 0 0 0 0 0 0 0 0 0 0 0 0 0 0
0 0 0 0 0 0 0 0 0 0 0 0 0 0 0 0 0 0 0 0 0 0 0 0 0 0 0 0 0 0 0 0 0 0 0 0 0 0 0 0 0 0 0
0 0 0 0 0 0 0 0 0 0 0 0 0 0 0 0 0 0 0 0 0 0 0 0 0 0 0 0 0 0 0 0 0 0 0 0 0 0 0 0 0 0 0
0 0 0 0 0 0 0 0 0 0 0 0 0 0 0 0 0 0 0 0 0 0 0 0 0 0 0 0 0 0 0 0 0 0 0 0 0 0 0 0 0 0 0
0 0 0 0 0 0 0 0 0 0 0 0 0 0 0 0 0 0 0 0 0 0 0 0 0 0 0 0 0 0 0 0 0 0 0 0 0 0 0 0 0 0 0
0 0 0 0 0 0 0 0 0 0 0 0 0 0 0 0 0 0 0 0 0 0 0 0 0 0 0 0 0 0 0 0 0 0 0 0 0 0 0 0 0 0 0
0 0 0 0 0 0 0 0 0 0 0 0 0 0 0 0 0 0 0 0 0 0 0 0 0 0 0 0 0 0 0 0 0 0 0 0 0 0 0 0 0 0 0
0 0 0 0 0 0 0 0 0 0 0 0 0 0 0 0 0 0 0 0 0 0 0 0 0 0 0 0 0 0 0 0 0 0 0 0 0 0 0 0 0 0 0
0 0 0 0 0 0 0 0 0 0 0 0 0 0 0 0 0 0 0 0 0 0 0 0 0 0 0 0 0 0 0 0 0 0 0 0 0 0 0 0 0 0 0
0 0 0 0 0 0 0 0 0 0 0 0 0 0 0 0 0 0 0 0 0 0 0 0 0 0 0 0 0 0 0 0 0 0 0 0 0 0 0 0 0 0 0
0 0 0 0 0 0 0 0 0 0 0 0 0 0 0 0 0 0 0 0 0 0 0 0 0 0 0 0 0 0 0 0 0 0 0 0 0 0 0 0 0 0 0
0 0 0 0 0 0 0 0 0 0 0 0 0 0 0 0 0 0 0 0 0 0 0 0 0 0 0 0 0 0 0 0 0 0 0 0 0 0 0 0 0 0 0
0 0 0 0 0 0 0 0 0 0 0 0 0 0 0 0 0 0 0 0 0 0 0 0 0 0 0 0 0 0 0 0 0 0 0 0 0 0 0 0 0 0 0
Wind_Speed
4 4 5 6 7 8 10 10 10 10 10 10 11 11 12 12 12 12 12 12 12 12 13 13 13 13 13 13 12 12 13 13 13 13 12 13 13 13 12 11 9 10 13
5 6 7 7 8 8 9 10 10 10 10 10 11 11 12 11 12 12 12 12 12 12 12 12 12 12 12 12 12 11 12 12 12 11 10 10 11 12 12 11 11 9 11
6 6 8 7 8 8 9 10 10 10 10 10 11 11 12 11 11 11 11 11 12 12 12 12 12 12 12 12 11 11 11 11 10 8 6 7 9 11 10 10 10 10 10
6 6 7 8 8 9 9 10 10 10 10 10 10 11 11 11 11 11 11 11 11 11 11 11 11 11 11 12 11 11 10 10 8 5 5 7 7 9 9 9 9 9 9
6 6 7 8 8 9 9 10 10 10 10 10 10 10 10 11 11 11 11 10 10 10 10 11 11 11 11 10 10 10 9 8 5 4 6 6 6 8 8 8 8 8 8
6 6 7 7 8 9 9 9 10 10 10 10 10 10 10 10 10 11 10 10 10 10 10 10 10 10 9 9 9 9 8 6 2 5 5 5 6 7 7 6 7 7 7
6 6 7 6 8 8 9 9 9 10 10 10 10 10 10 10 10 10 10 10 9 9 9 9 9 8 8 8 8 7 7 5 4 4 4 4 6 7 6 5 5 5 5
6 6 6 6 7 8 8 8 9 9 10 10 10 9 9 9 9 9 9 9 9 9 8 8 8 8 7 7 7 7 6 4 3 4 3 4 6 5 5 4 4 4 4
5 5 5 6 7 7 7 8 8 8 9 9 9 9 9 9 9 9 8 8 8 8 8 8 7 7 7 7 6 6 5 4 2 3 3 3 5 4 4 4 4 4 3
5 4 4 5 5 6 6 8 8 8 8 9 9 8 8 8 8 8 8 8 7 7 7 7 7 7 6 6 6 5 3 2 2 2 2 3 4 3 3 3 4 4 4
4 3 4 4 4 5 5 6 7 7 7 7 7 7 5 5 5 5 7 7 7 6 6 6 6 5 4 5 5 4 1 1 2 2 2 4 3 3 3 3 3 3 3
5 4 3 4 4 4 4 5 4 4 4 4 4 5 3 3 3 4 6 6 6 5 4 5 4 3 2 2 3 1 1 2 2 2 3 5 4 3 3 3 3 3 3
4 3 3 3 4 4 3 3 2 2 3 3 4 4 3 3 3 2 2 2 3 3 2 2 1 2 2 2 2 2 2 2 1 2 3 5 5 4 4 3 3 3 3
4 3 3 3 3 3 4 3 3 2 2 2 3 3 2 2 2 2 1 1 1 1 1 1 1 1 1 1 1 2 2 2 2 2 3 6 6 5 5 5 4 4 4
4 4 3 3 3 3 3 3 3 3 2 3 2 2 2 2 2 2 1 1 1 1 1 1 1 1 1 1 1 2 2 2 2 2 2 5 6 5 5 5 5 5 5
4 4 4 4 3 3 3 3 3 3 3 3 2 3 2 2 2 1 1 1 1 1 1 1 1 1 1 1 2 2 2 2 2 2 2 2 4 5 5 5 5 6 6
5 4 5 4 4 4 3 3 2 2 3 2 2 2 2 2 1 1 1 0 0 0 0 0 1 1 1 1 2 2 2 2 2 2 2 2 2 3 5 6 6 6 6
5 5 5 4 4 4 3 3 2 2 2 2 2 2 2 2 1 1 1 0 0 0 0 0 0 1 1 2 2 2 2 2 2 2 2 2 2 2 3 6 7 7 7
5 5 6 5 5 5 4 3 3 2 2 2 2 2 2 2 1 1 1 0 0 0 0 0 1 1 1 2 2 2 2 2 2 2 2 2 2 3 3 3 5 6 7
5 5 6 6 5 5 4 3 3 2 2 1 1 1 2 1 2 1 1 1 0 0 0 0 1 1 1 2 2 3 2 2 2 2 2 2 2 3 3 4 4 3 5
4 5 6 6 6 5 4 3 3 2 2 1 1 1 1 2 2 1 1 1 1 0 0 0 1 1 1 2 2 2 2 2 2 2 2 2 2 3 3 4 4 4 3
5 5 5 6 6 5 4 3 2 2 2 1 1 1 1 1 2 1 1 1 1 1 1 0 1 1 1 1 2 3 2 3 2 2 2 2 2 2 3 3 4 4 4
6 6 5 6 6 6 5 3 3 2 2 1 1 1 1 1 1 1 1 1 1 1 1 1 1 1 1 1 1 2 3 3 3 2 3 3 3 3 3 3 4 4 4
6 5 5 6 6 6 6 5 5 4 3 3 2 2 2 1 1 1 1 1 1 1 2 2 2 2 2 2 1 2 3 3 3 3 2 3 4 4 4 3 4 4 4
5 5 5 5 6 6 6 6 6 4 3 2 2 2 1 1 1 1 1 1 2 2 2 2 2 2 2 2 2 2 3 3 4 4 5 4 4 3 4 4 4 4 4
4 4 5 5 5 5 6 6 6 6 4 4 3 2 2 1 1 1 1 1 2 2 2 2 3 3 3 3 3 3 3 3 3 4 5 6 5 4 4 4 4 4 4
Wind_Direction
146 141 131 124 116 109 103 100 98 95 94 95 95 94 92 90 89 85 82 80 80 79 79 79 78 78 78 77 77 75 74 73 73 72 72 71 71 70 66 60 60 70 63
143 143 133 125 120 114 108 104 102 99 94 94 95 94 93 89 86 87 84 80 79 80 79 79 78 76 76 76 76 77 76 75 74 71 74 79 75 70 66 60 54 62 62
137 138 139 124 121 118 111 107 106 102 98 94 93 92 91 89 87 86 84 81 80 79 79 79 78 77 76 75 76 77 77 76 74 70 75 80 79 71 68 65 65 65 62
133 135 135 121 118 118 115 110 107 105 102 97 92 90 89 88 88 87 84 81 79 78 78 77 78 78 77 76 74 75 76 75 70 64 70 71 76 72 69 68 66 65 62
129 129 122 121 118 119 117 113 110 106 103 99 95 92 90 90 87 85 82 80 78 78 78 77 77 78 77 76 73 72 72 72 66 68 69 68 71 71 66 65 63 63 62
130 127 120 120 123 119 117 114 111 109 105 102 98 95 92 91 90 86 83 80 78 76 76 76 75 75 76 74 72 69 67 59 67 71 68 66 67 67 61 63 62 62 61
127 124 125 118 123 120 117 114 111 111 107 103 98 95 94 92 89 87 84 82 79 77 76 75 74 73 70 70 70 68 63 41 46 66 65 66 63 56 52 57 59 58 57
126 125 123 112 116 118 116 111 109 111 109 105 100 95 91 87 88 86 84 82 80 77 74 71 68 67 64 64 65 62 54 20 54 61 59 64 61 48 41 41 50 51 50
122 126 126 135 131 118 109 105 104 106 105 102 98 94 89 85 83 80 79 78 77 74 71 67 66 64 60 59 60 58 45 9 18 58 53 54 55 41 35 32 36 41 42
119 125 130 138 142 141 130 105 101 99 100 99 95 90 88 87 84 77 73 66 70 70 67 66 64 63 60 58 54 49 30 309 40 50 48 56 41 27 25 23 25 29 30
127 127 132 135 138 140 138 123 115 106 99 105 102 94 102 109 102 92 72 60 60 61 61 61 61 59 57 70 56 36 335 358 24 24 36 46 20 7 12 13 19 18 22
152 145 143 143 141 145 139 138 137 132 127 124 120 118 117 107 93 85 77 63 59 56 60 58 61 71 43 66 69 20 11 5 2 10 36 25 357 351 358 4 8 6 11
161 148 148 148 146 147 141 139 136 135 133 128 122 118 115 108 106 99 100 94 81 67 64 67 81 56 37 37 25 21 12 0 2 5 31 21 357 351 351 351 357 4 4
165 162 151 145 152 149 146 141 141 137 135 129 126 124 124 113 108 102 97 83 77 62 44 27 10 32 28 36 21 11 6 356 355 355 26 17 358 356 358 359 354 348 346
173 172 160 151 149 148 148 146 141 136 132 129 129 132 123 123 118 111 101 85 60 41 34 4 350 2 4 17 0 348 342 340 340 341 12 23 3 358 356 351 350 345 335
183 180 163 153 150 145 143 143 142 143 137 136 134 124 122 122 122 125 118 83 40 20 11 345 355 340 340 349 342 334 325 322 326 330 330 8 17 1 352 345 340 336 331
189 183 169 160 154 149 144 142 141 144 143 139 131 131 129 120 125 127 117 97 27 9 354 346 25 351 344 335 324 327 322 318 311 315 324 326 345 14 6 352 344 338 329
189 181 170 159 157 154 149 142 132 142 142 137 135 141 139 133 132 128 122 94 6 45 350 342 1 344 320 317 315 317 308 307 305 311 320 331 336 340 4 3 350 340 332
192 181 171 162 161 157 149 142 132 125 130 137 140 137 143 149 159 148 140 125 163 87 1 339 339 317 309 316 311 305 302 297 300 302 311 329 335 331 325 347 346 344 337
198 186 176 169 164 159 156 150 137 128 128 135 130 135 153 163 171 161 155 142 133 119 44 331 338 327 310 313 303 296 291 286 287 296 298 301 317 320 319 320 316 336 345
196 193 185 180 170 166 164 167 163 164 160 145 138 133 176 175 169 167 167 161 181 196 234 293 301 304 320 318 295 291 273 263 277 291 289 291 307 317 322 324 321 322 329
199 197 193 188 181 177 175 171 169 163 162 160 148 153 171 184 179 183 186 182 197 200 206 258 281 285 310 319 307 299 283 239 239 271 282 287 298 309 318 321 323 325 325
205 205 203 194 187 184 178 159 145 146 151 174 176 172 171 165 179 187 196 201 209 213 215 226 241 255 268 278 303 298 292 289 308 250 268 276 294 300 307 315 319 321 322
209 206 207 200 189 186 181 178 179 187 194 199 200 200 183 189 187 194 205 212 218 226 229 230 231 248 246 247 260 276 289 301 285 290 261 273 294 296 301 306 309 312 317
205 201 203 200 192 186 187 187 186 192 196 179 180 191 191 188 195 194 210 226 223 228 232 242 245 244 247 252 257 269 270 274 272 275 284 292 289 287 298 299 296 300 311
199 193 194 190 189 184 184 188 190 188 185 178 184 188 203 205 210 208 215 220 235 243 237 242 246 245 250 253 259 262 269 269 278 274 279 289 293 296 298 293 295 304 314